[Date Prev][Date Next][Thread Prev][Thread Next] - [Date Index][Thread Index][Author Index]

ISS KEPS EPOC TIME 1117.1319319200



ISS (ZARYA)             
1 25544U 98067A   01117.13193192  .00041264  00000-0  48492-3 0  9075
2 25544  51.5715 345.9334 0012432 333.1238 165.5155 15.60935352139103
----
Via the sarex mailing list at AMSAT.ORG courtesy of AMSAT-NA.
To unsubscribe, send "unsubscribe sarex" to Majordomo@amsat.org



AMSAT Top AMSAT Home